TimeEST,TemperatureF,Dew PointF,Humidity,Sea Level PressureIn,VisibilityMPH,Wind Direction,Wind SpeedMPH,Gust SpeedMPH,PrecipitationIn,Events,Conditions,WindDirDegrees,DateUTC
12:14 AM,23.5,19.9,86,30.50,10.0,Calm,Calm,-,N/A,,Clear,0,2012-11-14 05:14:00
12:35 AM,23.7,21.0,89,30.50,10.0,Calm,Calm,-,N/A,,Clear,0,2012-11-14 05:35:00
12:54 AM,25.5,20.3,81,30.50,10.0,Calm,Calm,-,N/A,,Clear,0,2012-11-14 05:54:00
1:14 AM,22.8,19.4,87,30.50,10.0,Calm,Calm,-,N/A,,Clear,0,2012-11-14 06:14:00
1:35 AM,23.5,20.8,89,30.50,10.0,Calm,Calm,-,N/A,,Clear,0,2012-11-14 06:35:00
1:55 AM,22.6,18.9,85,30.50,10.0,Calm,Calm,-,N/A,,Clear,0,2012-11-14 06:55:00
2:14 AM,23.2,19.8,87,30.51,10.0,Calm,Calm,-,N/A,,Clear,0,2012-11-14 07:14:00
2:35 AM,21.9,18.9,88,30.50,7.0,Calm,Calm,-,N/A,,Clear,0,2012-11-14 07:35:00
2:54 AM,21.9,18.5,87,30.51,10.0,Calm,Calm,-,N/A,,Clear,0,2012-11-14 07:54:00
3:15 AM,22.8,19.4,87,30.51,10.0,Calm,Calm,-,N/A,,Clear,0,2012-11-14 08:15:00
3:35 AM,23.0,19.6,87,30.52,10.0,Calm,Calm,-,N/A,,Clear,0,2012-11-14 08:35:00
3:54 AM,22.8,19.8,88,30.52,10.0,Calm,Calm,-,N/A,,Clear,0,2012-11-14 08:54:00
4:15 AM,23.4,20.1,87,30.52,10.0,Calm,Calm,-,N/A,,Clear,0,2012-11-14 09:15:00
4:35 AM,22.8,19.8,88,30.52,10.0,Calm,Calm,-,N/A,,Clear,0,2012-11-14 09:35:00
4:54 AM,22.5,19.4,88,30.51,10.0,Calm,Calm,-,N/A,,Clear,0,2012-11-14 09:54:00
5:15 AM,21.4,18.1,87,30.52,10.0,Calm,Calm,-,N/A,,Clear,0,2012-11-14 10:15:00
5:35 AM,21.0,18.1,89,30.52,10.0,Calm,Calm,-,N/A,,Clear,0,2012-11-14 10:35:00
5:54 AM,21.0,18.0,88,30.53,10.0,Calm,Calm,-,N/A,,Clear,0,2012-11-14 10:54:00
6:15 AM,21.4,18.5,89,30.52,10.0,Calm,Calm,-,N/A,,Clear,0,2012-11-14 11:15:00
6:34 AM,21.4,18.9,90,30.53,10.0,Calm,Calm,-,N/A,,Clear,0,2012-11-14 11:34:00
6:54 AM,20.5,17.4,88,30.53,10.0,Calm,Calm,-,N/A,,Clear,0,2012-11-14 11:54:00
7:15 AM,20.7,18.1,90,30.53,10.0,Calm,Calm,-,N/A,,Clear,0,2012-11-14 12:15:00
7:34 AM,21.0,18.5,90,30.53,10.0,SE,3.5,-,N/A,,Clear,130,2012-11-14 12:34:00
7:55 AM,22.8,19.9,89,30.53,10.0,Calm,Calm,-,N/A,,Clear,0,2012-11-14 12:55:00
8:15 AM,25.2,21.9,87,30.53,10.0,Calm,Calm,-,N/A,,Clear,0,2012-11-14 13:15:00
8:34 AM,28.0,21.4,76,30.53,10.0,ESE,4.6,-,N/A,,Clear,120,2012-11-14 13:34:00
8:55 AM,28.9,22.1,76,30.54,10.0,SE,4.6,-,N/A,,Clear,130,2012-11-14 13:55:00
9:15 AM,29.8,22.5,74,30.54,10.0,ESE,3.5,-,N/A,,Clear,120,2012-11-14 14:15:00
9:34 AM,31.5,22.8,70,30.54,10.0,ESE,3.5,-,N/A,,Clear,110,2012-11-14 14:34:00
9:55 AM,32.4,23.4,69,30.54,10.0,ESE,5.8,-,N/A,,Clear,110,2012-11-14 14:55:00
10:15 AM,33.3,23.5,68,30.53,10.0,ESE,4.6,-,N/A,,Clear,120,2012-11-14 15:15:00
10:34 AM,34.3,23.9,66,30.53,10.0,SSE,5.8,-,N/A,,Clear,150,2012-11-14 15:34:00
10:55 AM,35.1,23.7,63,30.54,10.0,SSE,6.9,-,N/A,,Clear,150,2012-11-14 15:55:00
11:14 AM,35.4,23.4,62,30.54,10.0,SE,8.1,-,N/A,,Clear,140,2012-11-14 16:14:00
11:34 AM,36.1,23.2,59,30.54,10.0,SSE,5.8,-,N/A,,Clear,150,2012-11-14 16:34:00
11:55 AM,37.0,24.1,59,30.53,10.0,South,9.2,-,N/A,,Clear,170,2012-11-14 16:55:00
12:14 PM,37.2,24.1,59,30.52,10.0,ESE,3.5,-,N/A,,Clear,120,2012-11-14 17:14:00
12:35 PM,37.9,24.4,58,30.51,10.0,SSE,6.9,-,N/A,,Clear,150,2012-11-14 17:35:00
12:54 PM,37.9,24.1,57,30.50,10.0,South,8.1,-,N/A,,Clear,180,2012-11-14 17:54:00
1:15 PM,38.5,23.4,55,30.49,10.0,SE,9.2,-,N/A,,Clear,130,2012-11-14 18:15:00
1:35 PM,38.5,23.9,56,30.49,10.0,SSE,5.8,-,N/A,,Clear,160,2012-11-14 18:35:00
1:54 PM,38.7,24.3,56,30.48,10.0,SSE,6.9,-,N/A,,Clear,150,2012-11-14 18:54:00
2:15 PM,39.2,24.8,56,30.47,10.0,SSE,5.8,-,N/A,,Clear,160,2012-11-14 19:15:00
2:35 PM,39.9,25.2,56,30.46,10.0,Calm,Calm,-,N/A,,Clear,0,2012-11-14 19:35:00
2:54 PM,40.3,24.8,54,30.46,10.0,SSE,6.9,-,N/A,,Clear,160,2012-11-14 19:54:00
3:15 PM,38.7,24.8,58,30.45,10.0,South,4.6,-,N/A,,Clear,170,2012-11-14 20:15:00
3:35 PM,38.8,24.4,56,30.45,10.0,SSE,5.8,-,N/A,,Clear,160,2012-11-14 20:35:00
3:55 PM,39.2,24.4,56,30.45,10.0,SE,6.9,-,N/A,,Clear,130,2012-11-14 20:55:00
4:14 PM,38.3,24.4,57,30.45,10.0,SSE,4.6,-,N/A,,Clear,160,2012-11-14 21:14:00
4:35 PM,37.8,24.6,59,30.45,10.0,Calm,Calm,-,N/A,,Clear,0,2012-11-14 21:35:00
4:54 PM,37.6,24.6,60,30.44,10.0,Calm,Calm,-,N/A,,Clear,0,2012-11-14 21:54:00
5:15 PM,36.5,25.0,63,30.45,10.0,Calm,Calm,-,N/A,,Clear,0,2012-11-14 22:15:00
5:35 PM,35.4,24.4,64,30.44,10.0,Calm,Calm,-,N/A,,Clear,0,2012-11-14 22:35:00
5:54 PM,35.1,24.6,66,30.44,10.0,Calm,Calm,-,N/A,,Clear,0,2012-11-14 22:54:00
6:15 PM,34.2,24.8,69,30.44,10.0,SE,3.5,-,N/A,,Clear,130,2012-11-14 23:15:00
6:35 PM,33.8,25.0,70,30.44,10.0,Calm,Calm,-,N/A,,Clear,0,2012-11-14 23:35:00
6:55 PM,33.1,24.6,71,30.43,10.0,Calm,Calm,-,N/A,,Clear,0,2012-11-14 23:55:00
7:14 PM,32.7,25.0,73,30.43,10.0,Calm,Calm,-,N/A,,Clear,0,2012-11-15 00:14:00
7:35 PM,32.9,26.8,78,30.43,10.0,ESE,6.9,-,N/A,,Clear,110,2012-11-15 00:35:00
7:54 PM,33.6,27.0,77,30.42,10.0,ESE,5.8,-,N/A,,Clear,110,2012-11-15 00:54:00
8:14 PM,33.3,27.0,78,30.42,10.0,ESE,4.6,-,N/A,,Clear,110,2012-11-15 01:14:00
8:35 PM,33.1,27.3,79,30.42,10.0,Calm,Calm,-,N/A,,Clear,0,2012-11-15 01:35:00
8:55 PM,32.5,27.3,81,30.42,10.0,Calm,Calm,-,N/A,,Clear,0,2012-11-15 01:55:00
9:35 PM,31.8,27.9,85,30.42,10.0,Calm,Calm,-,N/A,,Clear,0,2012-11-15 02:35:00
9:55 PM,31.8,27.9,85,30.41,10.0,ESE,3.5,-,N/A,,Clear,110,2012-11-15 02:55:00
10:15 PM,31.6,27.5,85,30.41,10.0,ESE,4.6,-,N/A,,Clear,110,2012-11-15 03:15:00
10:34 PM,30.9,27.3,86,30.41,10.0,Calm,Calm,-,N/A,,Clear,0,2012-11-15 03:34:00
10:54 PM,31.1,27.0,85,30.41,10.0,ESE,3.5,-,N/A,,Clear,120,2012-11-15 03:54:00
11:14 PM,30.9,27.1,86,30.40,10.0,ESE,3.5,-,N/A,,Clear,120,2012-11-15 04:14:00
11:34 PM,31.3,27.5,86,30.40,10.0,Calm,Calm,-,N/A,,Clear,0,2012-11-15 04:34:00
11:54 PM,29.7,26.1,86,30.40,10.0,East,3.5,-,N/A,,Clear,100,2012-11-15 04:54:00